CZ-4C R/B

Satellite information

Favourite Embed

Satellite Type and Status

ROCKET BODYIN ORBIT

Key statistics

Satellite CZ-4C R/B at a glance.

Uptime

1128

Days in orbit

Revolutions

≈ 14.7

Per day

Orbit

SSO

Sun Synchronous Orbit

Inclination

98.3

Latest

Satellite identification and parameters

Extended collection of information and parameters for CZ-4C R/B.

Object identification

Identified? True

Debris? False

Object name: CZ-4C R/B

International designator: 2022-035B

Object number (NORAD): 52201

Object ID (CCSDS): 52201

Country: PEOPLES REPUBLIC OF CHINA (PRC)

Current information (Y/N): Y

RCS size: LARGE

Orbital parameters

Period: 97.72 minutes

Inclination: 98.2832 deg

SMA: 7027.727 km

Apoapsis: 724.987 km

Periapsis: 574.196 km

RAAN: 183.0494 deg

Eccentricy: 0.0107283

Argument of periapsis: 85.3345 deg

Mean anomaly: 276.0105 deg

Mean motion: 14.73602832 rev/day

Mean motion (dot): 0.00001211 rev/day2

B* drag term: 0.00017788 1/REarth

Two-line elements (TLE)

Creation date: May 7, 2025, 10:26 p.m.

Reference frame: TEME

Reference center: EARTH

Epoch: May 7, 2025, 5:59 p.m. UTC

TLE line 0: 0 CZ-4C R/B

TLE line 1: 1 52201U 22035B 25127.74931669 .00001211 00000-0 17788-3 0 9993

TLE line 2: 2 52201 98.2832 183.0494 0107283 85.3345 276.0105 14.73602832165720

Live tracking on map

Real-time ground track for satellite CZ-4C R/B.

In-orbit conjunctions

A list of the most updated potential collisions computed for object CZ-4C R/B.

Target Orbit TCA Probability of collision Miss distance Type
FENGYUN 1C DEB SSO 2024-06-21 12:41:43 0.0004719163 113.0 (m) DEBRIS

Associated space launch

Gaofen (GF) is a series of Chinese civilian remote sensing satellites for the state-sponsored program China High-definition Earth Observation System (CHEOS). GF 3 features a multi-polarized C-band SAR at meter-level resolution, with designed lifespan of 8 years. The satellite is based on the CS-L3000B bus.

CZ-4C R/B was lifted into orbit during the mission ‘Long March 4C | Gaofen-3 03’, on board a Long March 4C space rocket.

The launch took place on April 6, 2022, 11:47 p.m. from Launch Area 4 (SLS-2 / 603).

For more information about the launch, click the button.

Launch to space Long March 4C | Gaofen-3 03
Long March 4C | Gaofen-3 03

Agency: N/A

Status: Launch Successful

Launch date: April 6, 2022, 11:47 p.m. UTC

Rocket: Long March 4C

Launch pad: Launch Area 4 (SLS-2 / 603)

Location: Jiuquan Satellite Launch Center, People's Republic of China

...

Latest news about this satellite

There are no fresh news available about this satellite. Check back as we update our databases every day.


Newsletter sign-up

Weekly statistics, charts and insights to help you stay on top of the space industry.